THY4JV LTFM-LTAU

Flight info

Callsign THY4JV
Flight time N/A
Altitude 35000
Route VICEN UT57 VEVUD UT341 BAG UL614 GOBIT UG8 MARTI UW76 SARIZ
Aircraft A320/M-SDE3FGHIRWY/LB1

Departure

Time 2026-05-04 09:46
Airport İstanbul Airport (LTFM)

Arrival

Time N/A
Airport Kayseri Erkilet International Airport (LTAU)
Time Latitude Longitude Altitude Speed Heading
2026-05-04 08:57 41.26513 28.74967 313 ft 0 kts 287°
2026-05-04 09:34 41.26509 28.74983 312 ft 4 kts 284°
2026-05-04 09:35 41.26504 28.75018 312 ft 4 kts 275°
2026-05-04 09:35 41.26503 28.75054 313 ft 4 kts 262°
2026-05-04 09:35 41.26511 28.75086 312 ft 4 kts 225°
2026-05-04 09:35 41.26520 28.75095 312 ft 0 kts 197°
2026-05-04 09:39 41.26519 28.75095 313 ft 1 kts 197°
2026-05-04 09:39 41.26503 28.75089 313 ft 4 kts 197°
2026-05-04 09:39 41.26470 28.75074 313 ft 6 kts 198°
2026-05-04 09:40 41.26422 28.75052 313 ft 8 kts 199°
2026-05-04 09:40 41.26360 28.75027 313 ft 10 kts 197°
2026-05-04 09:40 41.26299 28.75001 313 ft 9 kts 199°
2026-05-04 09:40 41.26244 28.75026 313 ft 10 kts 120°
2026-05-04 09:41 41.26239 28.75126 313 ft 12 kts 89°
2026-05-04 09:42 41.26244 28.75542 314 ft 0 kts 89°
2026-05-04 09:43 41.26244 28.75546 314 ft 1 kts 89°
2026-05-04 09:43 41.26244 28.75564 314 ft 3 kts 89°
2026-05-04 09:43 41.26245 28.75597 315 ft 4 kts 89°
2026-05-04 09:43 41.26245 28.75630 316 ft 3 kts 89°
2026-05-04 09:44 41.26247 28.75649 316 ft 3 kts 79°
2026-05-04 09:44 41.26259 28.75675 314 ft 4 kts 29°
2026-05-04 09:44 41.26296 28.75677 315 ft 7 kts
2026-05-04 09:46 41.28880 28.75599 846 ft 144 kts
2026-05-04 09:46 41.29907 28.75634 1415 ft 150 kts 16°
2026-05-04 09:46 41.30789 28.76327 2103 ft 152 kts 36°
2026-05-04 09:47 41.31641 28.77340 2138 ft 179 kts 36°
2026-05-04 09:47 41.32670 28.78422 2426 ft 199 kts 29°
2026-05-04 09:49 41.26177 28.73627 315 ft 0 kts 105°
2026-05-04 09:49 41.26176 28.73632 315 ft 0 kts 105°